Theta_e
320 320 322 320 323 324 326 332 325 321 325 321 316 321 319 319 323 318 318 318 318 316 316 320 323 320 319 323 325 329 326 327 329 320 320 327 333 335 336 337 336 338 341 342 341 341 343 343 343 342 342 339 337 336 335 335 335 335 337 337 337 336 336 338 339 339 340 339 338 338 338 337 336 336 335 335 335 334 334 331 328 326 323 324 325 324 322 318 312 307 308 308 308 311 317 321 323
320 320 322 322 324 323 327 332 328 325 327 318 314 322 318 320 322 318 320 318 319 317 319 325 327 324 325 328 327 334 330 328 327 320 327 332 334 338 338 339 337 338 341 342 341 341 343 343 342 342 341 339 338 336 336 336 335 335 336 337 337 336 335 338 340 339 339 339 338 338 337 336 336 335 335 334 334 334 334 331 328 326 325 326 326 323 321 315 308 306 310 311 311 311 314 319 323
320 321 322 324 323 325 336 332 324 326 327 319 316 322 319 318 320 320 320 317 319 318 319 322 325 322 321 329 328 331 330 331 333 328 330 332 333 339 341 341 339 340 342 341 341 341 342 342 342 342 341 340 338 337 337 336 336 335 335 335 335 335 335 337 339 339 339 339 338 338 337 337 336 335 335 334 333 333 333 331 327 326 327 328 324 322 319 312 306 306 308 310 311 312 314 319 322
320 322 321 325 326 332 352 338 328 329 322 320 319 321 324 322 322 322 320 318 317 316 317 318 324 319 318 327 323 324 328 328 330 331 333 331 334 338 341 343 341 342 341 341 341 340 342 342 342 342 341 340 339 338 338 337 336 336 336 335 335 335 335 336 337 338 338 338 338 338 337 337 336 335 334 334 333 332 332 329 326 327 328 326 322 321 315 308 304 304 305 307 310 313 316 319 322
321 323 320 324 328 330 341 329 330 333 320 322 321 321 330 327 323 322 319 316 314 316 317 319 322 318 323 327 322 326 327 324 324 329 333 332 335 336 341 344 342 343 341 341 341 341 341 341 342 341 341 340 340 338 338 337 335 335 337 337 336 335 335 336 337 337 337 337 338 338 336 336 335 334 333 333 333 331 330 327 327 328 327 324 322 319 311 304 301 301 302 305 311 316 318 320 322
321 322 320 321 321 320 326 320 322 327 322 324 322 321 327 324 323 321 316 313 315 318 320 323 323 325 333 330 326 332 327 325 326 329 333 333 335 336 341 344 343 343 341 341 341 342 341 341 342 341 341 341 340 339 339 337 336 335 336 338 337 336 335 336 337 336 336 336 337 337 335 335 334 333 333 333 332 331 329 328 328 329 326 323 321 316 306 301 300 300 300 302 308 315 319 320 322
321 321 327 329 322 321 326 322 320 321 318 319 323 322 322 323 321 318 315 314 316 318 322 327 326 329 332 325 325 328 327 330 330 331 333 334 335 336 340 343 344 342 341 342 341 342 341 341 342 342 341 341 340 340 339 338 336 334 335 337 337 337 336 336 337 335 336 335 336 336 334 334 334 333 333 333 333 332 330 328 329 328 325 323 320 314 305 300 299 299 300 300 302 309 317 320 322
321 322 330 338 332 330 331 322 320 323 317 314 319 321 321 323 319 316 316 316 314 317 322 322 322 326 322 322 328 325 325 331 332 333 333 335 336 336 339 342 343 342 342 342 342 342 341 341 341 342 342 342 341 340 340 338 337 335 333 335 336 337 336 336 335 335 335 334 334 334 334 334 334 333 333 333 333 333 330 329 330 328 325 323 319 314 306 300 299 300 300 300 302 308 314 319 323
319 319 329 336 330 330 329 319 317 319 317 315 316 319 322 319 315 316 317 316 314 316 318 316 317 321 322 326 330 322 322 330 332 332 334 337 337 337 339 342 343 342 342 342 342 342 341 341 341 341 342 342 341 341 340 339 338 336 333 333 335 336 336 336 335 334 334 333 333 333 333 333 333 333 333 333 334 333 330 329 330 327 324 322 318 314 306 300 299 300 300 300 303 309 314 318 321
319 320 327 334 327 323 320 318 321 320 316 318 316 318 321 316 315 316 317 316 315 318 317 316 318 320 324 328 325 318 318 327 331 333 337 339 337 338 339 342 343 342 342 341 341 341 341 341 341 341 341 342 341 341 341 339 338 337 335 333 333 334 334 335 334 333 333 334 333 332 331 331 331 332 333 334 334 333 330 330 330 327 324 321 318 314 307 301 299 300 301 302 305 309 313 316 318
324 326 335 340 330 321 319 319 322 322 317 318 317 318 319 316 317 316 317 316 314 318 316 317 324 323 323 323 322 317 314 323 331 333 337 339 339 338 340 343 343 342 342 341 341 341 342 341 341 341 340 342 341 341 341 339 338 338 337 334 333 332 332 332 332 332 333 334 334 333 331 331 331 332 333 334 334 333 331 331 330 327 324 322 318 315 309 302 299 300 301 303 307 311 314 316 318
322 329 346 343 329 325 325 321 318 322 319 317 316 316 316 315 317 316 317 317 314 317 314 314 321 323 323 321 319 314 314 324 331 333 335 339 340 339 340 343 344 342 341 340 342 342 342 341 341 340 340 341 341 341 341 340 339 338 337 335 334 333 332 332 331 332 332 333 334 334 333 333 333 332 333 333 334 333 332 331 329 327 324 322 319 316 312 306 300 299 300 302 305 310 314 316 318
329 335 352 330 321 328 326 321 320 323 319 317 317 315 314 315 317 318 317 317 316 317 314 311 315 321 322 319 315 311 315 326 331 332 333 337 340 341 341 342 344 342 342 341 343 343 342 342 340 339 340 341 341 341 341 340 339 339 337 335 334 334 334 334 332 332 332 333 334 334 334 335 334 333 333 333 334 333 332 331 329 327 325 323 320 318 316 311 306 301 299 300 302 306 310 314 317
328 340 354 325 316 325 322 320 321 320 318 321 320 316 315 315 317 316 317 318 316 316 312 309 313 320 319 316 316 314 315 323 331 332 330 336 339 341 341 342 344 342 343 343 344 343 341 343 340 338 339 340 340 340 341 341 340 339 338 336 335 334 335 334 334 333 332 332 332 333 334 334 334 333 333 333 333 333 332 331 330 327 325 323 321 320 319 317 314 309 304 300 300 301 304 307 310
321 336 345 327 317 320 320 321 322 321 320 321 317 316 317 314 315 315 316 319 315 312 311 309 311 316 317 317 319 317 314 320 330 330 329 335 336 340 341 341 343 342 343 343 343 341 340 340 338 340 340 340 341 340 340 340 340 340 339 337 335 334 335 335 335 334 333 333 333 333 333 334 334 334 333 333 333 333 331 331 330 328 326 324 322 323 321 320 319 316 312 308 305 302 300 300 302
326 338 341 329 319 318 319 320 322 321 320 322 316 315 318 313 314 315 313 314 314 312 313 314 311 312 315 318 315 313 314 320 329 330 330 334 334 337 338 339 340 339 340 340 340 338 337 337 336 339 339 339 342 341 340 340 340 340 339 338 336 334 334 335 335 335 334 334 334 333 333 333 334 334 333 333 333 332 331 331 330 328 326 325 323 324 323 322 321 319 318 315 313 310 306 302 300
335 345 341 327 319 319 319 320 321 323 324 323 317 316 319 316 314 313 310 313 317 315 315 314 310 310 313 314 311 312 316 321 329 330 328 330 331 332 333 335 336 336 338 337 337 335 334 336 336 336 336 338 341 341 341 340 339 339 340 339 337 335 334 335 335 334 335 334 334 333 333 333 333 334 334 333 333 332 331 331 330 329 327 325 324 324 324 323 322 321 319 318 316 315 313 309 304
345 342 334 321 318 321 321 323 320 322 324 319 317 318 320 318 315 313 312 316 316 315 315 314 312 310 310 312 312 315 315 321 329 327 324 324 325 326 326 328 330 332 334 334 335 334 333 334 336 336 336 339 340 341 339 338 338 339 339 340 338 337 335 335 334 334 334 335 334 334 333 333 333 334 334 333 333 332 332 331 331 330 327 326 326 325 325 323 323 322 321 320 318 315 314 312 310
342 340 332 324 325 322 319 324 319 317 320 318 318 317 318 318 317 313 313 317 314 316 317 313 316 314 312 313 313 316 317 324 329 324 320 319 319 321 321 322 324 326 328 330 331 332 333 332 334 335 336 338 339 339 337 336 337 338 338 339 339 338 337 335 335 335 334 334 334 334 333 333 332 333 334 333 333 332 332 332 331 330 328 327 327 326 325 324 324 324 322 320 319 317 314 312 311
329 336 332 325 329 323 316 320 320 318 318 319 318 315 316 316 315 313 315 318 315 319 321 317 320 319 316 313 311 315 319 324 325 321 318 316 316 317 317 318 319 321 322 325 326 328 331 331 332 333 335 336 337 337 336 335 337 338 337 337 338 338 338 337 336 335 334 334 334 333 333 333 332 332 334 334 333 333 333 332 331 330 329 328 327 326 325 325 324 324 323 320 319 318 316 313 311
321 328 328 322 322 320 317 318 318 317 316 319 319 315 316 315 313 314 315 318 317 321 322 321 324 322 318 315 311 313 316 319 319 317 315 314 315 315 315 316 316 317 318 320 321 323 327 330 331 332 334 336 336 336 336 336 336 337 335 335 338 338 338 338 337 336 335 334 333 333 332 333 333 332 333 334 334 333 333 332 331 331 330 328 327 327 325 325 325 324 323 321 319 318 317 315 313
319 318 320 320 318 316 317 318 316 315 315 318 319 316 316 314 314 317 317 319 320 319 317 319 322 318 316 315 311 311 312 313 314 313 313 313 313 314 314 314 315 315 315 316 317 318 321 326 329 331 333 334 336 335 336 337 335 336 336 335 338 338 338 338 338 337 336 335 333 333 333 332 332 333 334 334 334 334 333 332 331 331 330 329 327 327 325 325 325 325 324 322 320 319 318 316 315
321 317 316 319 318 316 318 318 317 317 317 318 318 315 315 314 315 316 316 319 318 313 312 313 315 312 311 311 310 312 311 309 311 312 312 313 313 313 313 313 314 314 314 314 315 315 316 319 325 329 331 333 335 335 335 336 335 338 338 336 338 339 339 338 338 337 337 336 334 334 333 332 332 334 334 333 333 334 333 332 332 331 330 329 327 327 326 324 325 325 324 322 320 320 319 317 316
325 320 317 318 316 317 319 319 318 319 320 319 317 314 315 317 316 313 315 319 315 308 306 306 307 308 309 311 310 311 310 308 311 311 312 312 312 313 313 313 313 313 312 312 312 314 314 316 318 324 329 331 333 334 335 335 335 338 338 337 337 337 338 337 337 337 336 336 334 334 333 332 333 334 334 333 332 333 332 331 330 329 328 328 327 327 326 325 323 324 323 321 320 320 319 318 316
325 319 318 318 316 318 319 319 320 320 318 316 315 315 317 318 314 313 319 320 313 307 306 305 307 308 310 315 313 307 307 309 310 311 311 311 312 312 312 312 312 311 310 310 312 313 315 315 316 320 326 329 332 333 334 334 335 336 335 336 335 335 337 336 336 336 335 335 333 333 333 333 334 333 333 333 332 332 331 330 329 328 327 328 327 327 327 326 323 322 321 320 320 319 319 318 317
320 318 320 319 317 318 317 317 320 319 317 315 315 318 317 315 312 315 321 318 310 308 310 309 311 313 314 316 311 305 306 307 308 310 310 311 311 311 312 313 312 310 309 310 311 313 315 316 316 317 322 328 331 332 334 334 334 334 334 335 334 334 336 334 335 335 334 334 334 333 333 333 333 333 333 331 331 331 330 331 330 329 328 328 328 328 328 327 323 322 321 319 319 319 318 318 317
317 320 320 319 319 319 317 316 319 317 316 316 315 318 317 313 313 316 320 313 309 312 312 311 313 315 314 313 310 306 306 307 308 309 308 309 310 311 312 312 311 311 310 311 311 312 314 316 317 317 319 325 329 331 332 334 334 334 334 333 332 333 334 333 333 334 332 333 334 333 333 332 332 332 331 331 331 330 330 331 330 329 329 328 328 328 328 326 324 322 321 319 319 318 318 318 317
316 319 318 320 322 320 317 316 317 315 315 317 316 317 316 312 314 318 317 310 309 314 314 311 313 314 312 312 310 306 305 307 308 308 308 308 310 312 312 311 310 311 311 310 311 313 315 317 318 320 321 325 328 330 331 333 334 334 333 331 331 332 332 333 333 333 332 332 333 332 332 332 331 331 331 331 330 329 329 329 328 329 328 327 327 327 327 325 323 322 321 319 319 318 318 317 317
316 318 318 324 327 322 317 317 317 314 315 317 316 316 317 315 316 318 313 309 309 313 314 312 312 313 311 311 310 306 305 306 306 306 308 308 310 312 311 311 310 311 311 311 312 314 317 318 320 323 323 326 328 329 330 332 333 333 333 331 330 330 331 332 332 331 331 330 331 332 332 331 330 331 330 330 329 329 329 328 328 328 327 326 326 325 325 324 323 322 320 319 318 318 318 317 316
317 317 317 323 327 325 317 314 315 314 315 318 315 318 325 324 318 315 310 308 311 313 313 312 311 312 311 311 311 309 304 304 304 306 308 308 310 312 312 312 311 312 312 312 313 314 318 320 321 324 324 326 328 328 329 331 332 331 331 331 329 329 330 331 331 330 330 329 330 330 330 330 330 330 329 329 328 328 328 327 327 326 324 324 324 324 323 322 322 321 319 318 318 318 318 317 316
320 314 322 326 320 328 325 314 316 315 314 315 315 318 324 327 322 315 309 308 312 314 313 311 311 311 311 310 310 311 305 302 304 306 307 307 310 312 312 312 312 312 312 314 314 314 318 320 322 323 323 326 327 328 328 329 330 330 330 330 329 328 328 330 329 329 329 328 329 329 329 329 328 328 327 327 327 327 326 325 325 323 322 322 323 323 322 321 320 319 318 318 317 317 317 316 314
329 315 325 330 317 331 334 316 316 317 314 312 314 320 321 321 320 313 308 308 311 314 313 310 310 310 310 310 308 310 306 302 303 305 306 306 309 312 312 312 312 312 312 314 315 315 318 320 321 323 323 325 326 327 327 327 329 328 327 327 327 327 327 328 328 327 326 326 327 327 327 327 326 326 326 326 326 325 325 324 322 321 320 320 320 320 319 319 318 318 317 317 317 315 314 312 310
336 321 323 331 321 326 329 317 315 316 315 312 313 321 323 321 316 310 307 308 310 313 313 310 309 309 308 308 307 308 307 304 303 303 305 306 308 311 312 312 312 312 313 315 316 316 318 318 320 322 323 324 325 326 324 325 326 324 324 324 324 324 325 325 326 326 324 324 326 325 325 325 324 325 324 324 324 323 323 322 319 319 319 319 318 318 317 317 318 318 317 315 315 314 312 309 307
333 322 320 330 325 322 324 324 317 312 315 315 313 316 319 320 315 311 308 308 310 312 313 311 308 308 307 307 307 307 307 307 304 302 304 305 306 310 312 311 311 312 313 314 315 316 317 317 318 320 321 321 322 323 321 322 324 321 322 322 321 323 323 323 324 325 323 323 324 323 323 323 323 323 322 322 322 321 320 319 317 317 317 317 317 316 315 314 313 314 312 309 311 312 310 308 305
333 326 323 327 323 320 323 326 318 312 314 316 315 315 316 316 315 316 312 308 310 312 310 310 308 308 307 307 307 306 306 306 303 301 303 304 305 309 311 311 311 312 312 313 315 316 316 316 316 318 319 318 319 319 318 320 320 319 320 318 317 320 321 320 322 322 321 321 322 321 322 322 322 321 320 320 320 319 318 316 315 315 315 315 313 310 306 305 305 305 305 305 308 309 307 306 304
333 332 332 329 324 322 324 325 321 315 314 316 316 315 316 315 315 317 314 308 309 310 309 309 309 308 307 307 306 306 306 304 302 301 303 303 304 309 311 311 310 311 310 312 314 315 315 315 315 315 316 317 317 316 316 318 316 314 315 315 315 316 316 317 319 319 318 319 319 319 320 320 319 319 318 318 318 317 316 315 314 312 311 310 305 301 299 300 303 303 304 305 306 305 304 303 303
326 328 329 328 325 325 325 325 323 315 314 319 318 315 316 315 315 316 313 310 309 309 309 309 309 308 307 307 307 306 306 303 301 301 303 303 304 308 310 310 310 309 309 311 312 313 313 314 314 314 314 315 315 313 314 316 314 313 314 314 313 311 312 315 315 315 316 317 316 316 317 316 316 316 316 316 316 316 314 312 311 308 305 303 299 296 296 300 304 305 304 304 305 303 301 300 300
320 322 323 324 325 324 321 321 320 315 314 321 320 315 315 314 313 313 313 313 312 311 311 310 309 308 307 307 307 307 306 303 301 300 301 302 305 308 309 308 309 309 308 310 311 312 312 313 314 315 313 312 312 311 311 312 313 314 314 312 311 309 309 312 312 312 314 314 313 313 313 313 313 313 313 313 313 313 312 309 304 301 299 297 295 294 294 297 302 305 306 304 303 302 299 298 298
318 320 320 322 324 322 322 321 317 314 315 322 322 317 316 315 313 312 312 313 312 310 311 311 311 310 308 307 307 307 307 305 303 301 300 301 304 307 308 308 308 309 309 309 310 311 311 311 312 313 311 308 308 308 309 309 309 311 310 308 309 309 308 309 310 310 310 310 310 310 310 310 311 311 310 311 311 310 307 302 297 295 295 294 294 293 293 294 296 299 302 303 302 300 299 299 300
319 321 319 322 323 321 324 323 316 314 316 320 320 317 316 315 314 314 313 311 311 311 311 310 310 311 310 308 308 307 307 306 304 302 300 300 303 306 307 307 307 308 308 308 309 309 310 309 309 309 307 305 306 306 307 307 306 307 307 305 307 308 306 306 307 306 306 307 306 306 307 307 307 307 307 307 306 303 299 295 293 293 293 293 294 293 293 293 293 294 295 298 298 296 294 294 297
322 321 319 321 322 321 323 323 319 321 322 319 318 320 321 321 317 317 317 315 313 312 312 312 310 309 310 309 309 308 307 305 304 303 300 299 302 304 306 307 307 307 307 307 308 308 309 308 307 307 306 304 304 306 307 307 307 307 304 301 301 301 300 301 302 300 301 302 302 302 303 303 304 303 303 301 298 295 293 293 293 293 292 293 293 293 292 292 291 292 292 293 294 293 291 290 291
324 324 321 319 321 322 321 321 320 325 329 321 318 325 333 334 327 320 321 320 318 315 314 314 311 309 309 309 309 308 307 306 304 302 301 299 301 304 306 307 307 306 307 307 307 307 308 307 306 305 304 303 303 304 306 306 307 308 307 303 300 297 294 295 297 297 297 298 298 298 299 299 299 298 296 294 292 292 292 292 292 292 292 292 292 292 291 291 290 290 291 291 291 291 291 290 289
325 327 323 319 318 320 321 321 321 327 331 320 317 326 331 330 325 324 327 325 324 321 317 315 313 311 310 309 308 308 307 306 304 302 300 299 301 304 306 306 306 306 306 306 305 305 306 306 305 304 303 302 302 302 303 305 305 305 306 307 304 302 297 293 292 294 294 294 293 293 294 294 293 293 292 291 291 292 292 292 292 292 291 291 291 291 290 290 290 290 289 290 289 290 290 290 288
328 326 323 322 319 319 320 321 323 327 327 322 323 326 325 323 322 324 327 328 328 326 322 319 316 313 311 309 308 309 307 305 304 303 301 300 301 304 306 306 306 306 306 306 304 303 304 304 304 303 302 302 302 303 303 305 306 304 305 305 303 302 302 295 291 291 291 290 290 290 290 290 290 291 291 291 291 291 292 291 291 291 291 290 290 290 290 289 289 289 289 289 289 289 289 289 288
327 320 320 322 321 321 322 322 324 324 323 326 329 324 322 327 329 324 322 324 327 326 325 323 320 317 313 310 309 308 307 304 303 303 301 300 300 304 306 306 306 306 306 305 304 303 303 303 303 302 302 301 302 303 303 303 305 305 306 306 301 297 297 294 290 289 289 289 290 290 290 290 290 290 291 291 291 291 291 290 290 290 290 290 290 289 289 289 289 289 288 288 289 288 288 288 287
320 316 320 323 323 325 327 327 327 326 324 326 329 325 322 327 330 327 322 323 328 327 324 322 319 320 318 313 310 308 306 304 303 302 300 300 300 303 306 306 306 305 305 304 304 304 304 303 302 302 302 301 301 301 302 301 301 303 305 307 303 295 291 290 289 289 289 289 289 289 289 289 290 290 290 290 290 290 290 290 290 290 289 289 289 289 288 288 288 288 288 288 288 287 287 287 287
317 322 328 328 329 330 331 330 326 327 327 324 328 328 324 325 329 328 326 328 331 327 325 325 322 322 322 316 310 308 306 303 302 302 300 300 300 302 305 306 305 304 304 303 303 303 304 303 302 302 301 301 300 299 300 301 301 303 304 306 304 297 291 289 288 288 288 289 289 289 289 289 289 290 289 289 289 289 289 289 289 289 289 288 288 288 288 288 288 287 287 287 286 286 286 286 286
320 333 333 328 332 330 329 330 328 329 328 324 326 324 322 324 326 327 327 325 326 325 326 331 332 329 325 318 310 307 305 303 302 302 301 299 299 301 304 305 304 303 302 302 302 302 302 302 301 301 300 300 299 298 299 301 300 302 303 303 303 298 292 289 289 289 289 289 289 289 289 289 289 289 289 289 289 289 289 289 289 288 288 288 288 287 287 287 287 286 286 286 286 286 285 285 285
322 332 329 326 330 328 327 330 328 328 324 319 320 321 321 323 324 328 327 323 324 324 322 326 329 327 326 321 311 305 304 303 301 301 301 299 298 300 303 303 302 301 301 301 301 301 300 300 300 300 299 298 298 297 298 300 299 300 301 300 299 296 292 290 290 289 289 289 290 289 289 289 288 288 288 288 288 288 288 288 288 288 288 287 287 287 287 286 286 286 286 286 285 285 285 285 285
321 325 327 327 328 330 333 332 326 326 324 317 316 320 324 325 325 325 323 322 325 324 321 321 320 319 321 319 311 305 303 303 301 301 301 300 299 300 302 302 301 300 300 300 300 300 299 298 299 299 298 297 297 297 297 298 298 299 299 298 296 293 290 290 290 290 290 290 290 290 289 289 289 289 288 288 288 288 288 288 288 288 287 287 287 286 286 286 286 286 286 286 285 285 285 285 285
318 321 325 326 327 333 337 335 329 327 328 320 315 321 329 331 328 323 320 323 327 326 324 319 315 314 314 312 309 305 303 302 301 300 300 299 298 300 301 301 300 300 299 299 298 298 298 298 298 298 296 295 296 295 295 296 297 297 296 295 293 291 290 290 290 290 290 291 290 290 290 289 289 289 288 288 288 288 288 288 287 287 287 286 286 286 286 285 286 286 286 285 285 285 284 284 284
318 322 325 325 327 327 326 326 325 325 327 324 320 323 328 328 325 323 322 323 324 323 321 319 318 316 312 311 309 305 303 301 301 300 300 299 298 299 301 301 300 300 299 298 297 297 297 297 297 297 297 295 295 294 294 295 296 295 294 292 291 290 290 290 290 290 290 290 290 290 290 289 289 288 288 288 288 288 288 287 287 287 286 286 286 286 286 286 286 286 286 285 285 284 284 284 283
320 320 323 322 321 320 320 321 318 318 323 324 323 324 325 325 323 320 320 321 323 322 320 320 319 316 313 314 310 305 302 301 300 300 300 298 297 298 300 300 300 299 298 297 297 297 297 297 296 296 295 295 294 294 294 294 295 294 292 290 290 290 290 290 290 290 290 290 290 290 289 289 288 288 288 288 287 287 287 287 287 286 286 286 286 286 286 286 286 286 285 285 284 284 283 283 283
322 323 323 318 317 321 326 326 324 324 326 326 324 323 324 325 324 321 319 320 321 321 322 321 318 316 317 315 309 304 302 301 300 300 299 297 297 298 299 299 299 299 299 297 297 297 297 297 297 295 294 294 293 293 294 294 293 292 290 289 289 289 290 290 290 290 290 290 289 289 289 288 288 288 288 288 287 287 287 287 286 286 286 286 286 286 286 286 286 285 285 285 284 283 283 283 283
321 325 322 321 325 327 325 326 329 329 328 329 327 323 321 322 323 324 323 324 325 322 321 321 319 320 320 315 308 304 302 301 300 300 299 297 296 297 298 298 299 299 298 298 297 297 296 296 296 295 295 295 294 293 293 293 293 292 290 289 288 289 290 290 290 290 290 290 289 289 288 288 288 288 288 288 287 287 286 286 286 286 286 286 287 287 287 286 285 285 285 284 284 284 283 283 283
316 319 317 320 326 326 325 325 327 328 329 330 329 326 324 324 325 325 323 326 330 325 320 320 321 321 318 314 310 305 302 301 300 299 299 297 295 296 297 298 298 298 297 297 297 296 296 295 295 295 295 295 293 292 292 292 292 291 289 288 288 288 289 290 290 290 290 290 289 288 288 288 288 288 288 287 287 287 286 286 286 286 286 287 287 286 286 286 285 285 285 284 284 284 283 283 283
318 320 319 319 320 322 325 324 324 329 331 332 331 327 325 327 326 326 325 324 324 325 324 324 325 320 315 313 311 305 301 300 300 299 298 297 295 295 296 297 297 297 297 297 297 296 295 295 295 295 294 294 292 292 292 291 291 289 288 288 288 288 289 289 289 289 289 289 288 288 288 288 288 287 287 287 287 287 287 287 286 287 287 287 286 286 285 285 285 285 285 284 284 283 283 283 282
319 320 320 319 319 321 324 322 323 326 327 329 330 326 326 329 325 324 327 325 319 320 322 327 327 319 314 315 311 305 302 300 299 299 298 296 294 294 295 296 296 296 295 296 296 295 295 295 295 294 294 293 292 292 291 291 290 289 288 288 288 288 288 288 289 289 289 288 288 288 288 288 288 287 287 287 287 287 286 286 286 286 286 286 286 285 285 285 285 284 284 284 283 283 283 282 282
Wind_Speed
7 6 5 4 3 1 2 5 3 2 4 3 1 1 2 2 2 3 2 2 2 3 2 2 4 4 4 5 7 6 3 3 4 3 2 4 4 3 7 6 5 5 10 13 13 13 12 12 11 11 11 10 11 12 13 13 13 13 13 12 12 12 12 13 13 14 14 14 14 14 15 15 15 15 15 16 16 17 17 17 17 18 18 18 18 19 19 18 17 16 14 11 8 6 7 8 9
7 4 4 3 1 1 1 4 3 3 5 3 2 2 2 2 1 5 3 1 3 2 2 7 9 8 7 7 6 5 3 0 3 3 3 1 4 3 2 4 6 8 11 14 14 13 12 12 11 11 10 10 11 11 12 12 12 11 12 12 11 11 12 13 13 13 13 13 13 14 14 14 14 14 14 14 15 16 16 15 15 16 17 18 19 20 19 19 18 17 15 14 11 9 8 9 10
6 3 2 1 1 3 1 4 3 2 5 2 3 3 1 1 4 6 4 5 7 7 4 6 7 5 4 4 4 4 2 2 0 2 2 1 2 3 3 4 8 9 12 14 14 13 12 12 11 10 10 10 10 11 11 11 11 11 11 11 11 11 12 13 12 12 12 12 13 13 13 13 13 13 13 13 14 14 14 14 15 16 17 18 19 19 19 18 18 17 16 15 13 11 10 11 11
6 3 2 3 1 4 4 4 3 4 4 3 2 4 2 4 7 6 4 4 6 5 3 3 4 2 3 5 2 1 0 3 2 2 2 2 2 2 4 6 10 10 12 14 14 13 12 12 11 10 9 9 10 10 10 10 10 11 11 11 11 11 12 12 12 12 12 12 12 12 12 12 12 12 12 12 12 12 13 13 14 16 18 19 19 19 18 18 18 18 17 15 14 13 13 12 13
4 2 3 2 2 2 3 3 3 4 3 4 3 4 5 6 7 5 3 3 3 4 4 3 3 2 3 3 0 1 1 4 4 3 2 1 1 4 7 9 11 11 11 14 14 13 12 12 11 10 9 9 9 9 10 10 10 10 11 11 11 11 12 12 12 12 12 12 12 12 11 11 10 10 10 11 11 11 11 12 14 16 18 19 18 18 18 17 17 17 16 15 15 14 13 13 13
1 3 6 5 4 1 3 3 3 2 4 5 4 5 6 6 7 5 1 2 3 2 3 3 4 3 3 2 0 1 2 3 5 4 3 2 2 5 8 10 12 11 11 14 14 13 13 12 11 10 10 10 10 10 9 9 10 10 11 11 11 11 11 12 12 11 11 11 12 11 10 10 9 9 10 10 11 10 10 12 15 17 18 18 18 18 17 17 16 16 16 15 14 14 14 13 13
1 2 5 7 3 2 4 4 5 2 3 5 4 5 7 6 6 5 3 2 4 3 3 3 5 6 2 2 0 1 3 3 4 3 4 3 3 6 10 11 12 12 12 14 14 13 13 12 12 11 10 10 10 10 10 9 9 10 11 11 11 10 11 12 12 11 11 11 11 11 10 9 9 9 10 10 10 9 10 13 15 16 17 17 17 17 17 17 16 15 15 14 14 14 14 14 13
4 1 1 5 3 4 4 3 3 2 1 3 4 5 7 7 5 4 2 1 1 1 3 1 2 6 1 1 1 2 4 3 3 2 4 3 4 7 11 12 13 13 12 13 14 13 13 12 11 10 10 10 10 10 10 10 9 9 10 11 11 10 11 11 11 11 10 10 11 10 9 9 8 8 9 9 9 9 11 13 14 15 16 17 17 17 17 16 15 15 14 14 14 14 14 14 14
5 3 1 5 3 3 4 2 1 2 2 3 4 3 4 4 4 3 3 2 1 2 1 4 0 3 1 3 0 4 4 3 2 1 2 2 4 8 12 12 12 12 12 13 14 13 13 12 11 10 10 10 10 9 9 10 9 9 9 11 11 10 10 11 11 11 10 9 9 9 8 8 8 8 8 9 8 8 10 12 13 15 16 16 17 17 17 16 15 15 15 15 15 15 14 14 13
5 4 2 4 3 4 3 1 0 1 3 4 3 5 4 4 3 2 4 3 2 3 1 2 3 3 4 3 1 2 3 3 1 1 1 1 5 10 14 13 12 11 11 13 13 12 12 12 11 10 10 10 10 9 9 9 9 8 8 9 10 10 10 10 10 10 10 9 8 8 8 8 7 8 8 8 8 8 9 10 12 14 15 15 16 18 17 16 16 15 15 15 15 15 14 13 13
3 4 3 4 4 3 2 3 2 3 4 4 3 6 5 5 5 3 3 4 2 2 2 2 4 4 5 1 2 1 1 2 1 4 3 2 6 12 14 14 14 12 11 12 12 12 11 11 10 10 10 10 10 10 9 9 10 9 8 8 9 10 10 10 10 10 10 9 8 7 7 8 7 7 7 8 8 8 7 8 11 13 14 14 16 18 18 17 16 16 16 16 15 15 14 13 13
3 3 4 4 3 3 4 5 3 4 5 3 1 5 2 5 6 4 4 5 2 3 2 0 3 5 4 1 3 2 1 1 4 6 5 4 7 12 15 16 15 14 13 12 12 12 11 10 10 9 10 10 11 10 10 11 11 10 9 9 10 10 10 10 10 10 10 10 9 8 8 8 7 7 7 7 8 8 7 7 10 13 13 14 16 18 18 18 17 16 16 16 15 14 14 13 12
4 2 5 3 3 4 4 5 3 2 4 3 4 3 2 4 5 7 7 5 2 4 1 3 3 6 3 2 2 3 2 5 6 7 6 6 9 12 15 17 15 14 15 14 15 15 12 10 9 9 9 10 11 10 11 12 12 11 10 10 10 11 11 11 11 10 10 10 9 9 8 8 7 6 7 7 7 7 6 7 10 12 12 13 16 18 18 18 18 17 16 16 15 14 13 12 11
3 3 5 3 2 3 5 3 2 2 3 5 3 2 1 1 3 6 7 5 1 2 1 4 3 4 2 2 2 4 5 8 8 7 8 9 11 13 15 16 15 15 16 16 16 15 14 12 9 9 11 11 11 11 11 11 12 12 12 11 11 11 11 11 11 11 10 10 9 9 9 8 7 6 7 7 8 7 6 7 9 11 11 13 16 17 18 18 18 18 17 16 15 14 13 12 11
3 3 5 4 2 2 3 2 3 5 5 4 2 1 2 1 3 3 5 6 2 2 1 3 2 1 3 5 4 5 9 10 10 9 11 12 12 14 15 15 16 14 13 13 14 13 13 14 11 10 13 13 12 12 12 11 11 12 13 12 12 12 12 12 11 11 10 9 9 9 9 8 7 6 7 7 8 8 6 6 7 9 10 12 15 16 17 17 18 18 17 16 15 14 13 12 12
3 4 5 4 2 2 4 2 3 3 5 5 2 1 4 1 2 3 2 4 3 3 3 1 3 2 3 5 3 7 14 12 12 12 13 14 13 14 13 14 15 14 13 12 14 15 12 10 13 13 12 13 12 11 12 12 11 12 12 13 13 13 12 12 12 11 10 10 9 8 8 8 8 7 8 8 9 8 6 6 6 8 9 11 13 15 15 16 17 17 18 17 16 15 14 14 13
3 4 5 3 3 4 5 4 4 4 5 5 4 1 5 1 2 3 1 6 5 3 4 1 3 3 1 1 1 10 15 13 15 14 14 15 13 14 13 13 13 14 14 12 12 16 14 8 10 14 13 14 15 13 12 11 11 11 12 13 14 15 14 13 12 12 11 11 10 9 9 8 7 8 9 9 9 8 7 6 6 7 8 10 11 13 14 15 17 17 18 18 17 17 16 15 14
5 4 4 3 4 4 5 7 7 4 4 6 4 3 7 4 1 2 2 7 4 3 5 3 5 5 1 2 4 9 13 16 18 16 15 14 13 13 12 12 12 12 13 12 12 14 16 12 8 11 13 14 14 15 13 11 11 11 11 12 13 15 14 13 13 12 12 12 11 10 9 8 8 9 9 10 9 8 8 7 6 6 7 9 10 11 12 14 16 17 18 18 18 17 17 16 16
4 3 4 3 6 4 5 7 6 3 3 5 3 3 6 6 4 3 1 1 2 3 3 4 4 3 1 3 6 9 14 18 19 16 15 13 12 13 11 11 11 12 12 12 13 13 16 16 12 10 11 13 11 14 15 12 11 11 11 11 11 13 14 13 12 12 12 12 12 11 9 9 9 8 9 10 9 9 9 8 7 6 7 8 9 10 11 13 15 16 16 17 17 17 18 18 17
3 4 4 4 6 4 4 6 7 5 4 6 3 2 2 3 4 2 3 3 1 3 4 1 2 5 4 2 5 11 14 17 17 16 14 12 11 11 11 11 10 11 12 12 13 13 15 17 17 14 11 11 9 12 15 12 12 11 10 10 10 12 14 14 13 13 12 12 12 11 10 10 9 9 9 10 10 10 10 10 9 7 6 7 8 10 10 11 13 14 14 15 16 16 18 18 17
2 4 3 5 4 2 3 6 6 4 5 6 4 4 2 3 2 2 6 5 3 7 7 7 8 10 9 6 6 12 14 15 15 15 15 13 11 10 10 10 10 10 11 12 13 13 15 17 19 18 15 12 11 13 13 13 13 12 12 11 11 12 13 15 15 13 12 12 12 11 11 11 10 9 10 12 12 12 12 12 10 9 7 6 8 9 9 10 11 12 13 13 16 17 17 18 18
3 1 3 5 5 2 3 4 3 4 5 5 5 5 3 2 1 3 8 6 6 6 7 8 8 11 11 8 9 11 12 13 13 14 15 13 12 11 10 9 9 10 10 12 13 14 15 17 19 20 19 15 13 14 13 14 15 16 15 13 13 13 13 14 15 14 13 12 11 10 11 11 10 10 12 14 15 15 15 14 11 10 9 8 8 8 9 9 9 9 11 11 14 16 16 17 17
3 1 1 3 4 2 2 3 3 5 7 5 5 3 3 3 1 3 7 7 6 4 5 6 6 11 14 11 10 9 9 11 13 14 15 15 13 12 11 10 9 10 11 12 13 14 14 16 19 21 22 18 16 15 14 15 16 17 16 13 12 14 14 13 14 13 13 13 10 10 10 11 10 10 11 11 12 16 17 15 13 12 12 11 9 7 8 9 8 7 7 8 12 14 15 16 17
6 1 1 1 4 4 2 3 3 5 7 6 4 3 3 5 3 1 5 7 3 3 1 5 9 14 15 10 8 8 9 11 12 13 14 14 13 12 11 10 10 10 11 12 11 12 13 15 17 20 23 22 18 15 16 17 16 14 15 14 13 15 16 15 15 13 13 13 10 9 10 11 10 10 10 7 9 14 14 13 15 15 14 12 10 8 7 9 9 8 7 8 11 12 13 15 16
5 2 2 0 1 3 1 3 1 3 4 2 5 4 4 6 4 1 6 6 0 2 5 8 10 11 10 8 7 8 9 10 11 12 11 12 11 11 10 10 10 10 8 8 9 11 12 14 16 17 21 23 20 16 16 19 18 14 14 16 16 17 17 16 15 14 14 14 12 10 10 11 12 11 12 10 11 11 9 8 10 13 13 11 11 10 9 9 11 10 8 9 11 11 13 14 15
1 3 2 0 2 4 2 1 2 1 1 3 5 3 5 2 1 3 6 6 3 4 7 6 8 8 6 6 7 8 8 9 11 11 11 11 10 10 10 9 8 7 6 5 7 9 10 11 13 14 18 22 21 18 17 19 20 18 16 17 18 19 19 17 15 15 13 12 13 12 11 12 13 13 13 12 11 10 7 6 6 10 12 10 10 10 9 10 12 10 8 9 10 12 13 13 14
1 3 1 1 2 5 1 2 4 1 2 3 6 5 4 3 2 4 4 5 5 7 6 4 7 7 6 5 6 9 9 11 12 12 11 10 11 11 10 9 8 6 5 5 6 7 7 8 9 11 15 20 21 19 18 20 19 18 18 17 18 21 21 17 16 15 12 10 11 11 12 13 14 14 14 12 11 10 10 9 7 9 12 10 10 9 7 9 13 11 9 10 11 12 14 13 14
1 3 1 3 5 5 1 2 5 0 2 5 7 4 3 3 1 6 5 5 6 8 7 5 6 6 6 5 5 7 9 12 13 13 13 13 13 13 11 10 9 7 6 6 5 6 6 7 7 10 15 18 20 19 20 21 19 18 19 16 17 19 20 18 16 13 12 13 13 12 13 13 14 14 12 11 11 12 12 10 9 10 10 9 8 8 8 12 14 12 10 11 12 13 15 15 15
1 4 1 6 8 5 3 3 3 3 2 5 6 2 4 4 7 6 3 6 6 7 7 5 6 5 5 5 5 6 9 12 13 14 15 14 13 13 12 10 9 8 7 5 6 7 7 8 10 13 17 18 19 20 21 22 21 20 19 17 17 18 18 17 16 13 12 15 16 15 14 13 13 13 13 13 12 13 13 12 10 10 10 10 10 10 13 14 14 13 12 12 13 13 15 15 16
0 3 2 4 7 6 5 0 2 4 3 4 4 3 6 8 10 5 2 7 7 6 7 6 5 5 5 5 4 5 8 11 13 15 15 13 13 13 12 11 9 9 8 7 7 9 9 10 13 16 18 18 18 21 22 22 22 21 20 19 17 18 18 17 16 15 13 14 16 16 16 14 14 14 15 14 13 13 13 13 12 12 13 13 13 13 14 16 15 14 12 12 12 12 14 15 17
1 1 2 3 2 4 6 1 4 5 2 2 4 3 7 9 9 4 5 8 9 8 8 7 6 5 5 5 5 5 7 11 14 15 15 13 13 14 13 12 11 10 9 9 9 10 11 13 16 17 19 20 20 22 22 22 21 20 21 21 20 19 18 16 15 15 17 17 16 15 14 14 15 15 15 15 14 14 14 15 15 15 15 16 15 14 14 15 14 14 13 11 13 13 15 17 19
3 1 3 3 2 5 8 2 6 5 0 2 4 3 7 8 8 4 5 6 7 9 8 7 7 7 7 6 6 5 6 11 13 15 16 15 14 14 14 13 12 12 10 10 10 11 13 15 17 19 20 21 22 23 22 22 22 22 23 23 23 21 19 17 15 15 18 20 17 16 15 14 15 15 15 15 15 16 16 17 17 16 15 15 16 15 13 13 13 13 11 9 11 14 17 21 23
4 0 3 2 2 3 7 3 3 3 2 0 2 3 4 4 5 3 3 6 6 7 7 8 8 8 7 6 6 6 6 8 10 14 17 16 15 15 14 13 13 12 11 12 12 13 15 17 18 19 20 21 22 23 24 24 23 24 24 23 22 21 20 21 19 16 17 19 17 17 17 15 15 14 15 15 16 17 18 18 18 17 15 14 15 14 11 10 8 7 8 9 10 15 19 23 25
4 1 2 4 3 2 3 4 4 1 3 3 4 4 7 6 4 1 4 6 6 8 9 9 8 7 7 6 6 6 7 7 9 14 18 17 15 15 15 14 13 13 13 14 14 15 17 19 19 20 21 22 23 24 25 26 25 24 23 22 22 21 20 21 21 19 18 18 18 18 18 17 15 15 16 16 17 19 19 19 19 18 15 14 13 11 10 9 8 8 12 14 15 18 22 25 26
3 3 2 3 3 3 4 5 2 3 2 4 4 5 11 13 8 4 6 6 8 10 10 7 7 8 7 7 8 7 8 8 10 15 18 18 16 15 16 15 15 16 15 16 15 16 18 20 20 21 22 22 23 24 24 24 24 24 23 23 22 21 21 20 20 20 20 20 19 19 18 17 16 17 18 18 19 20 20 20 19 17 15 14 14 14 14 13 14 15 17 20 21 23 25 26 27
7 6 5 4 4 4 5 6 5 4 3 5 7 7 11 13 12 8 7 7 8 10 8 6 7 8 8 8 8 9 10 9 11 16 19 18 17 17 17 16 16 16 16 16 17 18 20 21 21 21 22 22 24 24 23 23 23 24 24 23 21 21 22 22 20 20 21 20 19 19 18 18 18 18 19 19 19 20 20 20 19 18 17 17 18 19 19 18 18 19 21 24 26 28 28 28 27
5 5 4 4 4 5 5 5 7 2 4 6 8 9 11 11 13 11 5 6 8 9 9 9 9 8 9 11 11 11 10 8 11 17 20 19 18 18 18 17 16 16 16 17 19 20 21 21 21 21 22 22 25 26 25 25 24 23 23 22 22 22 23 23 22 21 20 20 19 20 20 19 20 19 20 20 21 21 21 21 21 21 20 20 21 22 22 21 20 21 25 27 28 29 28 26 26
3 3 3 3 4 6 7 5 5 0 4 6 5 7 11 12 13 11 4 6 10 12 12 13 13 12 10 11 13 11 7 5 10 15 18 19 18 19 19 18 18 18 18 19 19 21 21 22 22 22 23 23 24 25 25 25 24 24 24 25 25 24 23 23 23 21 20 20 21 21 21 21 20 21 21 21 22 22 23 23 22 23 22 22 24 24 23 23 22 22 24 26 26 27 24 22 22
2 2 2 3 3 4 7 5 3 1 4 5 4 4 9 12 12 11 7 8 11 12 14 15 14 13 12 12 12 10 8 7 9 12 16 19 20 20 20 19 20 20 20 20 20 21 22 22 23 23 24 23 23 23 23 24 24 24 26 28 27 26 24 24 24 23 22 22 23 23 22 22 22 23 23 23 23 23 24 24 25 25 24 24 24 24 23 22 23 22 22 24 24 23 19 16 14
3 3 2 4 3 2 4 5 3 1 2 2 4 4 7 9 9 11 12 11 10 10 12 14 12 13 14 12 11 11 12 12 10 10 13 17 20 21 21 21 20 21 21 21 21 23 23 23 24 25 24 23 23 24 24 24 26 26 27 28 28 28 27 26 26 25 24 24 25 25 24 24 24 25 25 24 25 25 25 26 26 26 25 23 23 23 23 22 21 20 20 21 22 21 19 15 10
5 6 6 5 5 6 6 4 4 3 3 3 3 6 6 8 10 12 8 4 8 9 10 12 12 12 11 9 10 12 13 12 12 11 12 16 20 21 22 22 21 22 23 23 24 24 25 25 25 26 25 24 25 25 25 27 28 29 30 30 28 29 29 28 28 28 26 27 27 26 27 27 26 27 27 27 27 27 27 26 26 25 24 22 21 22 23 22 21 19 18 17 17 19 20 19 16
5 6 10 10 9 8 7 3 5 4 5 3 3 4 6 5 8 11 5 2 8 8 8 14 13 10 10 10 11 11 10 10 11 12 13 17 20 21 22 23 23 24 24 25 26 25 25 26 27 27 26 25 25 26 27 29 31 33 33 32 30 31 29 26 28 30 29 29 29 29 30 29 29 29 29 28 28 27 26 25 24 23 23 22 22 22 23 22 21 20 18 17 17 16 17 19 19
4 5 10 11 9 7 6 3 1 1 5 3 2 2 7 6 7 9 5 5 10 8 8 13 12 9 10 12 11 8 8 8 9 11 13 16 20 22 23 24 25 25 26 26 26 25 26 27 27 27 27 27 26 27 29 31 32 33 33 33 33 34 31 27 28 31 31 32 32 33 32 32 31 30 29 28 27 26 25 24 23 23 23 23 22 22 23 22 21 20 19 18 18 15 14 18 18
4 5 6 9 9 8 7 6 4 4 3 4 3 2 5 8 7 6 5 8 10 10 11 13 13 12 11 11 9 8 10 10 11 11 13 16 21 24 25 26 26 26 27 27 26 26 26 27 27 27 26 27 28 29 31 32 32 31 31 32 32 33 34 32 31 32 33 34 34 34 33 32 31 30 29 27 26 24 24 23 23 23 23 23 22 22 22 21 21 20 19 18 17 15 14 17 17
5 3 5 6 6 5 4 5 4 1 2 5 4 1 4 8 5 3 0 6 8 11 13 15 15 12 10 10 9 9 10 11 12 13 14 17 22 25 26 26 26 26 27 28 28 27 27 26 26 26 26 28 29 31 32 31 31 31 30 31 31 31 34 36 35 34 35 35 35 34 33 32 31 29 27 26 25 24 23 23 23 23 23 22 22 22 22 21 20 19 18 17 16 16 15 15 15
4 5 7 5 5 5 5 4 3 2 2 6 5 3 3 8 4 2 2 3 8 10 12 14 13 9 8 9 10 9 8 9 10 11 13 18 22 25 25 25 25 26 27 28 28 27 28 27 27 26 27 28 30 32 32 31 30 31 30 31 32 34 36 38 37 36 35 35 35 34 33 32 30 28 27 26 25 24 23 23 22 22 22 22 22 21 21 20 19 19 18 17 17 17 16 15 15
5 7 6 7 6 5 4 2 4 1 5 7 8 9 6 7 3 4 3 4 7 9 8 10 9 6 6 8 8 9 8 8 8 8 11 17 21 23 24 25 25 26 27 27 27 28 28 28 28 28 27 29 31 32 31 30 30 30 30 31 34 38 40 40 39 38 37 37 36 35 33 31 30 28 27 26 25 24 23 23 22 22 22 21 21 20 20 19 19 18 18 18 17 16 16 15 15
5 4 5 4 4 4 4 4 4 1 6 5 6 7 8 9 6 3 6 6 5 7 8 10 9 7 6 6 6 8 7 8 8 8 10 13 17 20 23 24 25 26 27 28 28 29 29 29 29 29 29 30 32 32 31 30 30 30 31 33 36 40 43 43 43 41 39 39 38 36 34 32 31 29 28 27 25 24 23 23 22 22 21 21 20 20 19 18 18 18 17 17 16 15 14 13 14
4 4 6 3 2 3 2 3 0 4 7 3 1 1 4 10 8 6 8 9 9 9 9 10 9 7 7 6 6 6 6 7 8 8 9 10 14 19 22 24 25 27 28 29 30 31 31 31 31 31 31 32 33 33 32 31 31 31 33 35 38 42 44 44 43 43 41 40 39 38 36 34 32 30 28 27 26 24 23 23 22 21 21 20 20 19 19 18 17 16 16 16 15 14 12 11 11
6 6 6 5 2 1 3 3 2 4 6 4 2 1 4 6 4 9 13 13 11 8 9 10 8 8 8 6 6 6 6 8 8 9 9 10 14 20 23 25 26 27 29 30 31 32 32 32 32 32 33 33 34 33 32 32 32 33 35 37 40 44 45 44 43 43 42 40 39 38 36 35 33 31 29 28 26 25 23 23 22 21 21 20 19 19 18 17 16 15 15 14 14 13 11 9 9
6 5 6 6 6 5 4 4 4 5 4 4 2 2 4 2 3 8 9 8 7 7 8 7 7 8 7 5 5 6 7 7 7 8 10 11 17 22 24 25 26 28 29 30 31 32 33 33 33 34 34 34 34 33 33 33 33 34 37 39 42 44 45 44 43 42 41 40 38 37 35 34 33 32 30 28 27 25 24 23 22 21 21 20 19 18 17 16 14 14 13 12 12 11 9 8 8
3 3 4 4 6 5 2 2 5 2 2 3 2 4 4 3 6 8 6 6 7 8 8 7 10 9 4 4 5 6 7 7 8 9 9 12 18 23 24 25 26 27 29 30 31 33 33 34 34 35 35 35 35 34 34 34 35 36 38 41 43 44 44 44 43 41 40 39 37 36 35 34 33 32 31 29 27 25 24 24 22 22 21 20 19 17 16 15 13 12 11 11 11 10 8 8 8
2 3 4 4 4 5 2 3 1 3 3 4 2 6 5 3 7 8 6 8 8 8 8 8 11 8 3 6 6 6 7 7 8 9 9 12 17 21 24 25 26 28 29 30 31 33 34 35 35 35 35 36 35 35 35 35 36 38 39 42 43 44 45 44 43 42 40 38 37 35 35 34 33 32 31 30 28 26 24 24 23 22 21 19 18 17 15 14 12 11 10 10 10 9 8 7 7
5 4 6 3 2 2 2 2 3 3 4 5 2 7 6 2 6 4 2 8 11 9 9 10 10 6 6 9 6 6 7 8 8 8 9 11 17 21 23 25 27 29 31 31 32 33 34 35 36 37 37 37 36 36 36 36 37 39 41 42 43 44 44 43 43 42 40 39 37 36 36 35 34 33 31 30 29 27 25 24 23 23 21 19 17 16 14 13 11 11 10 9 9 8 7 6 6
5 4 5 4 2 1 2 2 2 1 3 5 3 5 5 5 6 2 3 10 12 12 11 10 9 8 10 9 5 6 7 7 7 8 8 10 15 21 24 26 27 29 30 31 32 32 33 34 36 37 38 38 37 37 37 37 38 40 42 43 43 44 44 43 42 41 40 40 39 38 37 36 35 33 32 31 30 28 27 25 24 23 21 19 17 15 14 13 11 10 10 9 8 7 5 5 5
3 2 3 2 2 4 4 3 3 3 3 4 3 4 5 6 6 6 10 12 11 12 10 9 11 12 11 6 5 7 7 8 8 8 8 9 15 21 24 27 28 29 30 31 32 33 33 34 35 36 37 37 37 37 38 38 39 41 43 43 42 43 43 43 42 42 40 40 39 39 38 37 36 34 33 32 30 29 28 26 24 22 21 19 18 16 15 13 12 10 9 8 8 7 5 5 5
3 4 5 3 1 2 1 1 2 4 3 2 3 6 8 5 4 8 11 10 10 10 8 9 11 11 7 3 6 7 8 8 8 9 8 9 15 20 23 26 27 28 30 32 34 34 33 35 36 36 37 37 38 38 39 39 40 42 43 43 42 42 43 43 42 41 41 40 40 39 38 37 36 35 34 33 31 30 28 26 24 23 21 20 18 17 16 14 13 11 10 9 8 7 6 5 5
7 7 8 8 6 4 2 3 2 3 2 4 3 7 10 5 4 6 7 6 7 8 9 9 10 8 5 3 7 7 8 8 8 9 8 9 14 19 22 25 26 28 30 32 33 34 34 36 37 37 38 39 39 39 39 40 41 42 42 43 43 43 43 43 42 42 41 41 40 39 38 37 36 35 34 33 32 30 28 27 25 23 21 20 18 17 15 13 12 12 11 9 8 7 7 6 6
Wind_Direction
350 338 316 308 307 268 22 55 72 347 68 81 353 73 210 216 206 159 84 332 45 353 313 50 47 67 96 121 144 144 130 152 165 135 201 236 50 110 182 199 221 192 170 164 159 163 155 148 148 138 130 122 116 114 112 110 112 112 112 111 111 112 111 105 98 96 97 97 96 94 91 88 86 83 80 79 80 80 79 75 71 64 58 54 51 48 45 42 39 35 36 39 50 64 74 78 78
348 333 317 301 3 101 231 64 91 345 54 79 299 159 229 332 123 160 148 124 136 166 106 86 73 65 81 109 116 94 62 328 186 185 240 257 70 92 164 196 198 182 175 169 161 165 160 152 152 142 133 126 121 118 114 111 112 114 117 118 117 116 116 111 102 98 98 99 98 96 93 90 87 84 81 78 79 80 80 76 68 62 56 52 49 46 43 41 40 41 42 45 51 64 78 83 85
342 316 319 204 57 44 80 49 95 73 76 126 260 240 280 56 177 186 173 137 150 160 122 80 79 57 67 75 47 71 59 330 304 245 280 27 86 87 95 138 157 169 176 171 163 166 164 156 155 145 137 132 126 122 117 114 115 116 119 123 122 117 118 117 111 106 104 103 102 100 96 91 88 85 82 79 77 79 79 72 64 59 54 50 47 45 43 42 44 47 48 49 52 61 78 86 89
335 318 320 187 88 27 60 45 120 114 111 173 228 258 259 184 189 203 211 183 186 174 135 60 65 360 79 89 27 91 60 304 317 288 293 2 54 117 142 149 159 170 174 171 166 167 167 160 159 151 143 138 130 126 120 117 119 120 121 124 126 122 121 122 119 114 110 107 105 103 99 95 92 89 87 85 79 78 76 68 63 57 53 49 47 45 44 45 48 52 52 53 55 63 79 89 91
337 4 358 148 99 41 90 71 107 101 167 178 158 254 249 199 199 207 240 231 214 191 167 96 92 295 71 90 54 125 274 289 315 314 304 318 139 159 166 170 174 174 174 174 169 170 170 163 162 158 151 145 138 132 124 121 123 122 123 125 126 126 125 124 123 120 115 113 110 107 105 102 98 96 94 90 84 80 75 68 63 57 53 50 47 47 47 49 52 55 55 56 59 67 79 88 92
344 93 40 73 88 116 108 93 116 112 206 170 147 239 233 201 208 186 130 61 97 144 157 99 138 151 62 355 40 123 273 303 320 321 326 274 190 181 177 180 184 179 177 177 174 174 172 166 165 165 159 154 147 140 131 125 126 127 127 127 127 127 129 127 124 124 121 118 115 112 113 109 104 100 97 93 88 83 77 70 63 56 53 52 50 50 51 52 55 58 60 61 65 71 79 88 95
125 148 33 63 47 38 98 116 148 172 188 174 177 199 205 212 207 157 123 87 70 29 60 103 140 112 74 303 19 350 345 321 303 326 331 275 206 187 179 185 190 185 181 179 178 178 177 173 170 170 166 162 157 148 140 135 133 132 133 133 131 131 134 131 128 130 127 124 121 118 119 114 108 101 99 95 89 85 77 69 61 56 54 53 53 53 54 56 58 62 65 68 73 77 83 91 97
79 127 15 80 32 24 92 103 159 184 148 217 228 188 196 209 191 138 120 133 116 23 78 151 109 91 46 20 136 279 5 341 307 345 318 271 205 188 181 184 191 190 185 183 181 182 183 179 176 175 173 169 164 156 147 141 139 133 134 139 136 135 137 135 136 138 133 130 126 123 124 120 114 106 104 100 92 84 75 68 61 57 56 55 56 56 57 59 61 63 69 75 80 83 90 96 99
56 45 69 79 72 42 61 50 127 218 259 254 244 226 217 192 170 123 97 65 132 118 123 236 222 105 169 61 356 276 351 352 313 340 311 254 195 182 183 183 190 193 186 186 186 187 187 184 183 182 181 176 168 164 157 147 143 137 135 141 140 138 140 140 143 143 136 130 126 127 129 126 121 112 111 107 100 89 77 71 64 59 59 59 59 60 60 62 65 65 69 77 83 88 93 97 98
40 29 125 76 82 66 45 53 245 244 259 257 237 241 226 175 152 112 113 109 119 92 264 239 80 111 134 111 259 288 354 353 322 119 53 206 174 172 186 187 189 193 188 188 190 193 192 189 188 187 189 183 180 174 163 156 149 142 139 143 143 142 145 146 147 145 138 132 130 131 130 130 128 120 120 116 109 98 87 77 66 61 63 64 64 64 64 66 69 70 72 78 85 89 93 95 96
39 358 99 76 77 106 170 185 249 252 276 308 288 255 220 168 127 76 89 112 100 103 186 84 89 131 104 96 256 239 304 343 146 128 87 125 164 171 183 187 190 192 188 189 192 197 197 196 191 190 195 188 188 186 171 163 159 153 147 148 146 146 148 149 149 149 145 142 138 136 135 133 133 130 127 126 118 108 97 85 70 65 68 70 69 69 69 70 73 75 77 80 85 89 91 92 93
93 339 65 86 126 163 188 163 214 261 305 323 236 266 198 149 130 127 130 120 97 109 157 254 153 142 83 314 261 261 252 177 155 127 112 130 161 172 178 184 190 191 185 188 194 198 199 198 196 195 203 198 192 191 182 173 171 166 159 158 157 155 155 156 157 158 155 152 150 144 141 138 138 139 137 137 128 118 107 93 75 69 73 74 73 73 74 75 75 77 79 82 86 89 91 91 91
119 144 85 94 152 140 146 143 214 284 316 249 198 268 116 145 162 165 146 106 66 110 86 290 157 114 89 242 274 288 220 172 155 133 142 145 152 165 175 182 187 188 184 188 189 192 200 198 201 205 208 206 199 197 192 184 179 175 172 169 166 167 166 167 168 168 166 164 164 155 149 147 144 143 145 145 138 129 115 97 79 73 77 77 77 77 78 79 78 79 80 81 83 86 90 90 90
129 154 102 105 104 110 139 136 225 165 234 244 228 279 58 149 174 162 133 94 327 152 341 312 137 112 107 196 293 270 205 174 160 154 162 153 148 155 165 172 178 179 177 180 175 178 191 191 201 212 212 214 209 204 200 192 187 184 181 176 174 176 176 179 180 179 178 175 175 168 162 161 157 150 151 154 148 142 127 103 84 79 82 82 82 81 80 80 80 80 80 81 82 83 85 86 86
124 134 85 106 89 82 157 167 168 154 211 223 194 219 78 77 136 134 137 130 225 250 333 346 79 165 181 169 230 220 177 169 163 164 166 160 155 153 156 160 170 175 173 176 177 182 187 191 210 208 195 204 215 211 204 198 194 192 185 181 182 181 182 186 190 190 186 182 181 174 173 173 169 158 156 163 160 155 139 116 94 87 88 89 88 85 81 80 79 79 78 77 77 79 80 81 81
110 110 68 93 125 147 181 175 123 131 230 216 222 180 89 351 98 109 242 142 137 345 9 354 10 333 178 175 233 170 157 162 162 163 163 160 158 157 160 160 167 176 178 179 184 197 198 198 216 213 191 192 209 212 209 204 197 195 193 190 186 185 186 188 193 198 193 189 188 182 180 177 172 165 164 171 171 166 149 131 109 93 93 97 94 86 81 79 78 75 73 72 71 72 74 77 76
64 76 67 88 151 185 186 174 164 167 227 231 262 216 115 293 347 121 302 66 101 18 27 307 334 11 154 202 157 146 154 163 161 158 157 156 156 155 158 165 168 172 180 182 182 194 204 199 201 211 206 200 205 204 205 203 196 199 200 201 197 191 187 188 196 199 198 196 193 190 188 180 174 173 171 174 175 171 155 145 126 103 96 102 100 88 81 78 75 71 68 67 66 67 70 73 73
56 79 93 127 173 193 181 180 196 174 186 203 215 171 131 166 244 154 55 40 61 45 23 346 353 13 45 110 124 146 157 163 163 158 151 151 155 154 155 165 171 174 180 187 189 193 206 211 196 194 195 203 203 194 200 199 197 203 202 209 211 200 190 192 199 200 202 200 196 195 192 182 177 178 177 178 179 175 165 160 141 113 103 105 104 91 84 80 75 69 65 62 62 64 68 72 73
82 109 96 179 198 198 188 180 192 184 176 182 183 156 147 176 170 141 175 349 51 84 357 349 4 351 46 103 119 146 157 160 167 163 154 153 157 160 160 167 174 180 184 189 195 198 207 214 211 195 184 197 197 191 203 203 197 205 204 209 214 205 199 199 200 203 203 200 199 197 192 185 181 183 182 185 185 180 174 168 154 127 111 110 110 101 90 84 78 69 65 64 62 64 67 70 72
125 108 88 223 213 214 211 185 200 219 172 151 165 164 164 200 162 153 181 167 189 195 207 198 244 230 203 189 126 140 154 157 166 166 160 159 160 164 166 174 181 185 193 196 200 201 204 210 213 213 200 197 199 200 208 204 198 205 209 210 209 207 208 208 206 206 204 201 202 197 193 191 188 189 188 191 191 187 181 171 161 146 128 124 122 112 100 90 84 75 69 68 68 69 70 71 73
99 102 150 208 174 169 209 192 207 208 157 147 140 120 156 228 173 152 146 138 259 244 213 192 201 199 188 201 152 142 151 154 164 166 162 162 164 171 173 181 189 195 202 206 209 209 208 210 213 217 214 206 205 208 208 204 201 201 206 215 216 212 210 211 212 213 209 202 201 198 196 194 194 192 193 196 195 194 187 178 171 163 154 147 139 124 111 98 87 80 75 72 74 76 73 73 74
67 44 196 191 141 137 213 194 192 152 120 108 118 139 171 186 118 150 151 172 231 236 228 213 196 181 174 175 159 145 148 153 161 166 165 167 170 175 182 191 199 208 215 217 218 217 215 212 213 215 214 210 203 206 207 203 205 206 205 208 217 219 213 212 215 217 213 204 201 202 200 198 198 195 202 203 196 195 188 182 180 175 170 160 148 135 126 110 87 78 77 76 79 79 77 76 77
94 331 282 211 181 180 199 175 185 143 112 128 159 179 139 116 282 186 172 208 229 257 252 219 182 162 158 152 153 149 151 160 165 170 170 171 175 179 189 199 209 219 225 229 227 223 220 214 213 214 213 211 204 204 206 204 212 213 201 196 212 218 212 209 210 210 207 205 206 205 206 206 202 199 213 212 191 189 186 180 185 185 174 157 150 152 141 125 107 93 86 87 87 85 82 83 82
90 138 297 222 195 203 195 135 161 141 137 184 172 118 143 173 213 144 210 235 255 325 346 141 138 140 145 143 153 159 161 166 167 173 176 178 183 187 195 207 218 226 231 234 227 221 220 214 212 212 211 211 208 204 202 206 216 208 186 190 208 209 206 203 202 202 195 202 215 208 207 210 204 198 204 201 175 184 192 186 186 186 172 154 156 165 156 139 130 123 117 109 100 94 91 88 86
69 146 239 231 210 254 333 67 108 145 149 166 117 136 210 195 170 162 236 237 132 60 84 110 121 125 139 147 157 160 161 166 166 168 174 181 185 191 199 213 224 227 230 225 213 214 215 212 211 210 207 206 210 208 198 203 215 208 189 194 200 195 196 192 187 192 186 192 210 206 201 202 198 194 188 178 170 178 194 187 180 181 172 163 165 171 177 165 148 138 131 119 111 106 99 92 88
180 145 199 96 338 324 28 115 248 202 180 109 127 220 271 267 208 258 238 198 146 103 96 110 122 128 149 156 166 165 163 169 168 169 173 178 186 197 200 209 224 222 222 216 210 215 208 206 209 207 203 202 208 209 198 199 207 206 198 199 192 184 191 194 186 191 187 182 195 200 204 203 192 190 186 175 170 172 183 185 175 176 177 180 180 182 194 180 160 151 142 132 126 117 106 97 93
170 116 158 113 352 319 91 197 261 290 279 183 172 230 278 327 285 250 242 176 151 116 114 133 136 152 169 165 178 172 173 176 173 171 172 179 188 197 198 202 215 213 217 219 213 208 192 198 204 195 192 197 202 203 195 192 197 195 193 193 181 173 182 191 189 191 195 193 199 203 205 205 194 188 185 174 171 172 178 187 181 178 183 186 188 194 199 177 166 159 145 137 132 122 112 105 99
80 82 296 329 347 308 187 227 265 196 250 191 168 222 278 352 245 231 231 172 156 137 147 167 157 173 177 173 184 179 185 182 178 177 179 188 193 197 202 206 211 209 219 221 202 182 179 189 183 174 179 189 195 193 184 183 187 185 183 184 170 164 168 174 177 181 193 196 196 199 194 191 188 187 184 173 169 169 170 177 173 170 177 174 172 181 177 171 169 160 145 132 126 122 115 109 104
51 58 338 308 356 333 247 234 234 166 201 184 151 271 277 223 221 245 228 157 145 142 164 184 182 190 187 187 185 188 195 185 185 192 194 197 198 200 204 206 205 206 212 207 187 172 176 181 170 167 172 180 188 184 175 175 181 179 180 183 171 160 159 164 164 163 176 173 169 176 177 173 174 179 178 170 165 164 163 167 168 160 159 154 150 159 163 165 165 155 142 127 121 121 115 110 108
360 47 51 314 359 333 277 331 138 158 184 178 152 271 266 240 242 257 173 153 139 155 188 196 197 200 198 199 191 201 201 191 195 201 202 202 201 202 200 200 200 204 202 189 185 178 177 177 172 170 169 175 181 177 170 169 172 173 175 177 173 163 157 161 159 159 168 162 157 163 165 166 168 170 169 165 162 161 160 159 159 152 147 148 148 154 157 156 155 144 133 124 119 117 113 111 110
21 22 41 4 358 284 289 342 136 158 194 135 134 242 264 264 268 258 181 167 158 180 205 201 205 208 205 208 201 212 209 201 206 205 205 205 201 200 197 196 197 202 197 185 188 184 178 174 172 171 169 172 174 172 166 164 166 170 173 171 174 168 159 163 165 168 172 165 164 161 160 165 164 164 162 161 160 158 158 152 148 144 141 143 145 149 149 142 138 127 117 115 110 108 110 112 112
35 332 308 346 182 267 303 283 161 161 268 71 134 229 274 272 278 271 181 177 178 194 210 207 212 212 207 214 207 215 221 214 214 208 205 204 203 201 197 195 198 202 195 187 189 183 179 174 171 172 170 170 171 172 167 165 169 172 171 166 167 167 162 163 164 169 163 156 162 160 158 163 158 157 157 157 158 155 154 148 140 138 138 138 135 136 133 123 119 113 105 106 109 109 112 115 117
360 92 251 271 177 277 318 303 218 176 116 80 191 234 282 278 297 316 167 182 194 210 225 218 218 218 212 215 213 214 219 221 221 211 203 202 205 201 197 198 200 200 194 191 189 183 180 174 171 171 171 170 169 170 164 162 165 162 160 158 158 161 161 157 157 167 159 150 159 158 155 160 157 156 157 160 160 152 148 142 135 133 134 131 126 123 118 110 110 117 118 124 125 122 120 119 119
315 16 242 244 192 210 301 305 289 143 141 219 226 239 255 262 294 314 185 188 194 220 232 223 221 223 220 217 216 217 213 216 219 207 199 200 205 199 198 201 200 199 196 194 189 184 181 173 171 171 171 167 165 166 160 157 160 156 154 154 153 152 153 151 153 164 162 154 157 156 154 156 157 159 159 161 156 146 142 138 133 131 132 131 127 122 117 116 125 137 134 129 128 127 124 122 120
197 199 210 254 238 212 252 285 263 150 175 229 205 241 257 267 275 227 206 194 194 223 232 229 228 223 224 221 219 219 215 219 213 201 196 199 204 197 195 198 201 200 194 190 187 184 180 174 172 171 170 165 162 163 157 156 157 155 152 148 146 147 148 148 152 158 156 153 153 152 153 152 155 159 158 157 152 144 140 136 132 130 133 132 127 121 118 121 125 126 125 124 125 124 122 121 121
165 175 161 194 235 251 235 253 257 183 169 234 213 227 249 260 268 246 214 195 206 233 244 242 235 225 225 223 222 218 217 223 207 195 194 198 202 196 191 195 201 199 190 187 186 184 179 175 172 170 171 171 167 161 157 157 151 145 146 143 141 142 144 146 150 153 150 149 150 150 152 151 153 153 153 153 148 143 138 134 132 129 130 128 122 117 114 117 118 117 119 123 124 121 119 120 121
129 131 145 199 214 262 252 248 284 217 163 242 223 226 247 251 261 258 208 183 220 238 243 243 234 227 225 222 223 219 219 216 194 193 195 197 200 194 190 193 195 191 186 187 185 182 180 176 173 170 171 174 170 160 156 159 155 148 146 145 142 138 140 144 144 147 146 147 148 149 149 147 148 148 147 148 145 141 138 134 131 128 129 127 120 114 111 113 115 117 120 122 124 122 118 117 120
105 128 186 252 216 249 257 239 291 277 173 260 241 227 253 250 255 263 195 174 224 226 226 237 232 228 228 223 225 218 208 184 181 193 196 195 195 191 191 190 190 187 183 186 186 183 180 177 178 174 169 168 165 159 156 157 159 158 153 147 145 139 138 141 140 142 144 145 146 145 145 144 146 145 145 145 143 140 137 133 131 129 129 126 119 112 109 110 113 120 124 124 124 122 120 122 126
142 127 176 261 244 269 279 269 304 152 180 264 271 240 258 257 256 260 232 210 231 225 219 230 228 226 227 222 224 212 195 186 186 193 192 192 191 189 191 189 190 191 184 185 186 184 180 176 178 177 170 166 165 162 160 158 156 156 150 145 145 142 140 141 141 141 143 144 143 143 143 144 145 144 143 144 142 139 136 133 130 127 125 121 117 112 109 108 109 116 124 126 124 121 119 127 138
195 172 177 243 245 254 277 288 324 254 209 273 291 285 271 267 266 258 243 228 241 240 227 235 232 227 230 223 218 208 200 196 189 189 187 189 189 188 191 189 188 189 184 182 183 183 181 178 176 174 171 170 169 167 164 160 154 152 148 144 144 142 140 141 140 139 142 143 141 142 142 143 144 143 142 142 139 136 133 129 125 122 118 116 115 112 109 106 106 109 115 123 125 118 108 101 112
236 205 200 222 226 215 232 283 333 331 333 360 333 305 273 254 254 254 257 240 249 249 236 245 242 234 238 233 221 212 204 195 187 187 184 184 188 189 190 189 187 186 184 183 182 182 182 180 177 175 175 175 173 173 170 163 157 152 144 137 135 134 134 138 138 137 140 140 140 141 141 142 142 140 138 137 134 131 127 123 121 118 115 114 112 109 106 104 103 103 105 111 116 116 109 97 91
269 229 207 216 219 222 240 306 2 351 320 337 13 302 273 260 252 255 283 306 255 245 232 244 246 235 233 233 227 213 201 195 187 185 184 184 187 186 188 190 188 187 187 185 184 184 184 183 180 179 179 177 176 175 171 166 160 155 149 142 137 134 132 136 138 138 140 140 139 138 138 138 137 135 134 132 129 126 123 121 119 117 114 112 109 106 104 102 100 99 99 100 103 110 114 106 97
267 243 206 212 211 218 235 210 110 244 260 291 65 222 271 286 262 252 236 233 253 252 245 251 251 239 227 229 227 207 192 187 182 185 184 185 185 183 187 192 190 188 188 186 184 186 186 184 183 183 181 179 177 173 169 164 158 154 154 152 149 145 141 140 141 141 141 139 137 136 135 135 134 133 131 129 126 124 122 121 119 117 114 110 108 105 102 101 100 98 97 96 97 101 105 105 104
239 249 182 190 197 210 218 185 192 233 262 315 23 125 272 278 264 258 201 207 253 265 260 260 251 239 231 231 225 202 194 185 180 187 187 187 188 185 187 190 190 187 186 187 185 185 186 184 183 184 182 180 178 173 167 164 161 157 155 152 150 150 148 145 144 142 141 140 137 136 135 134 133 131 129 127 126 125 123 121 119 115 112 109 108 105 103 102 101 101 99 96 96 94 91 96 101
244 219 138 154 170 183 167 146 192 296 11 297 302 96 272 269 258 321 61 203 246 261 255 255 251 242 230 228 224 205 197 190 186 188 188 189 189 187 187 187 188 186 186 187 187 185 185 184 184 184 182 179 175 171 167 164 164 163 160 156 151 149 147 147 146 143 142 141 138 137 136 134 133 131 130 128 127 126 123 121 118 114 112 111 109 106 106 106 105 104 103 102 102 100 96 97 98
216 127 97 76 73 82 83 111 138 42 338 245 235 161 254 272 230 126 41 205 232 245 248 253 255 247 225 220 220 207 195 191 191 189 186 188 188 187 186 184 185 186 186 187 187 186 185 185 186 184 183 180 173 171 169 168 168 166 165 164 158 151 148 147 146 144 143 143 140 138 137 136 135 133 131 130 128 126 123 121 118 115 113 112 111 110 110 110 109 108 107 107 107 107 107 105 103
137 104 68 49 35 41 50 53 86 40 271 233 212 190 203 270 259 166 196 205 210 224 246 262 266 265 240 225 215 202 193 188 186 183 180 183 185 184 183 182 183 184 185 185 186 187 186 185 185 183 184 183 178 174 174 174 174 172 171 170 164 157 153 150 149 147 146 145 143 141 140 139 137 136 134 133 130 128 125 123 120 117 116 115 114 113 113 112 111 111 110 109 108 107 107 105 104
113 91 82 69 349 8 22 356 49 232 258 237 221 195 187 240 260 217 238 251 227 216 234 257 267 275 257 234 217 201 192 180 174 174 174 173 177 181 182 181 181 181 182 183 184 185 185 184 184 182 182 184 182 178 179 179 177 176 175 172 168 163 159 156 153 151 150 149 146 145 144 142 141 139 138 136 133 132 129 127 124 122 121 119 117 116 115 114 113 112 111 109 107 104 103 102 101
107 101 112 118 321 352 340 306 108 230 261 282 311 137 204 244 247 233 251 262 247 224 226 245 258 266 254 232 218 201 182 177 175 175 175 172 175 180 181 180 180 181 182 183 183 183 183 182 183 183 182 183 183 181 181 182 180 179 176 172 169 166 162 160 157 155 154 153 151 150 148 147 145 144 143 140 138 137 134 130 128 127 125 123 121 119 117 116 115 113 110 107 105 102 101 98 98
167 149 147 156 160 196 255 269 279 264 272 304 9 143 246 277 261 230 233 241 242 230 229 242 249 253 252 236 209 190 181 181 179 178 178 180 182 181 182 180 179 182 183 183 183 182 182 181 182 183 182 182 183 183 183 183 181 180 177 173 170 167 164 162 160 159 158 157 156 153 152 150 148 147 146 143 142 140 137 135 133 130 128 126 125 123 121 120 117 112 108 105 104 103 104 103 101
187 164 147 168 167 172 210 216 231 259 284 301 297 196 212 223 272 252 240 256 272 256 245 251 256 250 250 243 197 179 188 185 180 183 184 186 185 182 182 181 181 182 183 183 183 183 182 182 183 183 182 182 183 184 184 183 182 179 177 175 171 168 166 165 163 162 161 160 158 156 154 152 150 149 148 146 145 144 142 139 137 134 132 131 128 126 124 122 118 113 110 109 110 113 115 113 113
221 131 124 196 188 168 198 204 183 188 307 293 229 222 221 206 267 271 260 284 284 260 262 270 264 256 238 230 203 184 193 186 183 188 187 188 185 184 184 182 182 182 183 184 183 183 182 181 183 184 184 184 184 185 184 184 183 180 178 175 172 170 168 167 166 165 164 162 160 158 156 155 154 152 151 149 148 148 146 143 141 138 135 134 131 128 125 122 119 116 117 119 120 125 127 121 120
168 141 183 214 174 147 184 268 62 82 266 269 201 242 283 315 279 267 241 257 263 264 275 262 259 269 259 238 217 191 195 187 191 194 187 186 184 186 187 183 182 182 183 185 184 184 184 182 182 183 183 183 185 186 185 184 184 181 179 176 173 172 171 170 169 167 166 164 162 161 159 158 157 155 154 152 152 152 150 147 144 141 139 137 133 130 126 124 125 126 127 130 128 130 135 129 126
129 179 202 166 73 84 123 246 349 44 253 270 218 246 278 284 273 311 127 229 249 260 259 251 262 279 263 248 215 187 198 189 194 193 183 186 185 185 187 185 185 185 185 186 186 186 186 185 184 183 182 183 184 186 186 186 185 183 180 178 176 175 174 173 172 170 168 166 165 164 163 162 160 159 157 155 156 155 153 151 147 144 142 140 136 133 132 133 136 138 138 138 134 135 145 143 139
128 181 182 132 140 218 121 171 226 180 249 282 284 270 267 209 226 278 180 210 231 242 241 249 263 256 247 245 201 184 197 188 191 190 183 187 187 186 186 186 187 186 186 186 185 186 186 187 186 185 185 185 185 186 187 187 187 185 182 180 179 178 176 176 174 172 171 169 168 168 166 165 163 162 160 159 159 158 156 154 151 147 145 143 141 141 143 146 148 148 146 147 146 148 161 163 157
62 108 157 130 151 179 166 163 175 169 220 278 311 308 269 214 199 203 210 212 214 224 233 241 247 246 247 234 186 188 196 192 193 190 190 188 186 189 187 186 187 186 186 186 185 186 187 186 186 186 187 186 186 188 187 187 187 186 184 182 181 180 179 178 177 175 174 173 172 171 170 168 167 166 164 162 162 160 158 156 153 151 150 149 150 151 152 155 156 155 154 159 163 166 177 182 177
149 158 175 190 118 114 164 180 138 137 163 213 270 285 268 237 184 193 207 215 211 210 217 230 239 250 264 220 184 197 198 198 197 186 188 187 184 188 188 188 188 186 185 186 187 188 187 187 188 188 188 187 187 188 188 189 188 187 185 184 184 183 181 181 179 178 177 176 176 175 173 172 170 169 168 166 164 162 160 157 156 156 156 156 158 158 157 160 162 165 168 170 175 179 188 195 192
181 189 192 187 171 141 171 235 200 138 171 184 188 268 269 240 180 198 201 206 219 209 203 227 246 257 275 228 196 203 198 197 197 187 184 182 181 185 186 187 187 186 186 187 187 188 188 189 189 190 190 190 189 189 189 190 189 188 188 187 186 185 184 183 182 181 180 179 179 178 176 176 174 172 171 169 167 164 161 161 160 160 160 161 161 160 161 166 171 175 176 175 178 186 196 202 199